Eau Claire, WI

2:01 PM CDT on March 23, 2017 (GMT -0500)
Chippewa Valley Regional

Weather History for KEAU - May, 2014

Change the Weather History Date:

Friday, May 9, 2014

  Actual Average Record
Temperature  
Mean Temperature 54 °F 56 °F  
Max Temperature 67 °F 68 °F 91 °F (1934)
Min Temperature 41 °F 43 °F 20 °F (1966)
Degree Days  
Heating Degree Days 11 10  
Month to date heating degree days 114 100  
Since 1 July heating degree days 9000 7740  
Cooling Degree Days 0 1  
Month to date cooling degree days 0 3  
Year to date cooling degree days 0 7  
Growing Degree Days 6 (Base 50)    
Moisture  
Dew Point 48 °F    
Average Humidity 82    
Maximum Humidity 97    
Minimum Humidity 66    
Precipitation  
Precipitation 0.00 in 0.11 in 1.89 in (1963)
Month to date precipitation 0.32 0.97  
Year to date precipitation 10.34 7.15  
Snow  
Snow 0.00 in 0.10 in 0.70 in (1960)
Month to date snowfall 0.0 0.2  
Since 1 July snowfall 74.8 47.0  
Snow Depth 0.00 in    
Sea Level Pressure  
Sea Level Pressure 29.61 in    
Wind  
Wind Speed 12 mph (WSW)    
Max Wind Speed 25 mph    
Max Gust Speed 34 mph    
Visibility 10 miles    
Events      
T = Trace of Precipitation, MM = Missing Value Source: NWS Daily Summary

Daily Weather History Graph

Daily Weather History Graph

Search for Another Location

Airport or City:

Trip Planner

Search our weather history database for the weather conditions in past years. The results will help you decide how hot, cold, wet, or windy it might be!

Date:

Astronomy

May. 09, 2014 Rise Set
Actual Time 5:44 AM CDT 8:21 PM CDT
Civil Twilight 5:11 AM CDT 8:54 PM CDT
Nautical Twilight 4:29 AM CDT 9:36 PM CDT
Astronomical Twilight 3:41 AM CDT 10:24 PM CDT
Moon 3:05 PM CDT (5/9) 3:01 AM CDT (5/9)
Length of Visible Light 15h 43m
Length of Day
14h 36m
Waxing Gibbous, 74% of the Moon is Illuminated
May 9
Waxing Gibbous
May 14
Full
May 21
Last Quarter
May 28
New
Jun 5
First Quarter

Hourly Weather History & Observations

Time (CDT) Temp. Windchill Dew Point Humidity Pressure Visibility Wind Dir Wind Speed Gust Speed Precip Events Conditions
12:56 AM 66.0 °F - 62.1 °F 87% 29.55 in 10.0 mi South 11.5 mph - N/A   Overcast
1:18 AM 66.0 °F - 60.1 °F 81% 29.55 in 10.0 mi SSW 10.4 mph - N/A   Overcast
1:56 AM 64.9 °F - 59.0 °F 81% 29.52 in 10.0 mi South 9.2 mph - N/A   Scattered Clouds
2:56 AM 63.0 °F - 59.0 °F 87% 29.50 in 10.0 mi South 6.9 mph - N/A   Clear
3:56 AM 61.0 °F - 59.0 °F 93% 29.49 in 10.0 mi SSE 4.6 mph - N/A   Clear
4:41 AM 59.0 °F - 55.9 °F 90% 29.51 in 10.0 mi WSW 17.3 mph 25.3 mph N/A   Mostly Cloudy
4:52 AM 59.0 °F - 53.6 °F 82% 29.51 in 10.0 mi WSW 16.1 mph 24.2 mph N/A   Overcast
4:56 AM 57.9 °F - 54.0 °F 87% 29.50 in 10.0 mi SW 16.1 mph 24.2 mph N/A   Overcast
5:56 AM 57.0 °F - 51.1 °F 81% 29.53 in 10.0 mi SW 13.8 mph - N/A   Overcast
6:52 AM 55.4 °F - 51.8 °F 88% 29.53 in 10.0 mi SW 12.7 mph - N/A   Overcast
7:08 AM 55.9 °F - 51.1 °F 84% 29.54 in 10.0 mi SW 12.7 mph - N/A   Overcast
7:56 AM 55.0 °F - 50.0 °F 83% 29.55 in 10.0 mi SW 12.7 mph 25.3 mph N/A   Overcast
8:12 AM 53.1 °F - 48.9 °F 86% 29.56 in 10.0 mi SW 17.3 mph 28.8 mph N/A   Overcast
8:56 AM 52.0 °F - 48.0 °F 86% 29.57 in 10.0 mi WSW 13.8 mph 23.0 mph N/A   Overcast
9:25 AM 52.0 °F - 46.0 °F 80% 29.57 in 10.0 mi WSW 20.7 mph 25.3 mph N/A   Overcast
9:56 AM 52.0 °F - 45.0 °F 77% 29.57 in 10.0 mi SW 17.3 mph 26.5 mph N/A   Overcast
10:54 AM 51.8 °F - 44.6 °F 76% 29.58 in 10.0 mi WSW 18.4 mph 25.3 mph N/A   Overcast
10:56 AM 51.1 °F - 45.0 °F 80% 29.58 in 10.0 mi SW 15.0 mph 25.3 mph N/A   Overcast
11:32 AM 51.1 °F - 44.1 °F 77% 29.58 in 10.0 mi WSW 18.4 mph 27.6 mph N/A   Overcast
11:56 AM 51.1 °F - 45.0 °F 80% 29.59 in 10.0 mi WSW 24.2 mph 29.9 mph N/A   Overcast
12:56 PM 51.1 °F - 43.0 °F 74% 29.61 in 10.0 mi WSW 18.4 mph 32.2 mph N/A   Overcast
1:56 PM 50.0 °F - 43.0 °F 77% 29.62 in 10.0 mi West 21.9 mph 29.9 mph N/A   Overcast
2:56 PM 52.0 °F - 43.0 °F 71% 29.63 in 10.0 mi West 11.5 mph 20.7 mph N/A   Overcast
3:56 PM 52.0 °F - 42.1 °F 69% 29.65 in 10.0 mi West 17.3 mph 27.6 mph N/A   Overcast
4:56 PM 52.0 °F - 42.1 °F 69% 29.67 in 10.0 mi West 15.0 mph 27.6 mph N/A   Overcast
5:29 PM 52.0 °F - 43.0 °F 71% 29.68 in 10.0 mi WSW 11.5 mph - N/A   Overcast
5:37 PM 52.0 °F - 43.0 °F 71% 29.68 in 10.0 mi West 12.7 mph - N/A   Overcast
5:56 PM 52.0 °F - 43.0 °F 71% 29.70 in 10.0 mi West 15.0 mph - N/A   Overcast
6:34 PM 53.1 °F - 43.0 °F 69% 29.70 in 10.0 mi West 9.2 mph 21.9 mph N/A   Overcast
6:56 PM 53.1 °F - 43.0 °F 69% 29.72 in 10.0 mi West 11.5 mph - N/A   Overcast
7:56 PM 53.1 °F - 42.1 °F 66% 29.74 in 10.0 mi West 9.2 mph - N/A   Overcast
8:56 PM 50.0 °F - 42.1 °F 74% 29.77 in 10.0 mi NW 3.5 mph - N/A   Mostly Cloudy
9:56 PM 48.0 °F - 42.1 °F 80% 29.79 in 10.0 mi WNW 4.6 mph - N/A   Partly Cloudy
10:56 PM 45.0 °F 43.5 °F 41.0 °F 86% 29.80 in 10.0 mi WSW 3.5 mph - N/A   Clear
11:56 PM 43.0 °F 41.3 °F 41.0 °F 93% 29.81 in 10.0 mi SW 3.5 mph - N/A   Clear